EW7074 Weather Reports


time (UTC)temp
C
wind
direction
speed
KPH
gust
KPH
rain 1hr
cm
rain 24hr
cm
rain mn
cm
humidity
%
barometer
mb
20260508075111 15 65 0.0 0.0 0.00 1.19 1.19 91 1004.9
20260508074839 15 65 0.0 0.0 0.00 1.19 1.19 91 1004.7
20260508074110 15 65 0.0 0.0 0.00 1.19 1.19 91 1004.6
20260508073608 15 65 0.0 0.0 0.00 1.19 1.19 91 1004.5
20260508073105 15 65 0.0 0.0 0.00 1.19 1.19 91 1004.3
20260508072604 15 65 1.6 6.4 0.03 1.19 1.19 91 1004.4
20260508072053 15 65 4.8 11.3 0.03 1.19 1.19 91 1004.2
20260508071549 15 59 6.4 11.3 0.08 1.19 1.19 91 1003.8
20260508071039 15 62 6.4 11.3 0.08 1.19 1.19 90 1003.9
20260508070530 15 70 6.4 9.7 0.13 1.19 1.19 91 1004.1
20260508070020 15 68 1.6 9.7 0.18 1.19 1.19 90 1004.2
20260508065507 15 39 0.0 6.4 0.23 1.19 1.19 90 1004.1
20260508064954 15 38 0.0 3.2 0.23 1.19 1.19 90 1004.1
20260508064443 15 253 0.0 0.0 0.28 1.19 1.19 90 1004.0
20260508064158 15 249 0.0 3.2 0.36 1.19 1.19 90 1004.5
20260508063418 15 249 0.0 3.2 0.43 1.19 1.19 90 1004.5
20260508062908 15 249 0.0 16.1 0.61 1.19 1.19 90 1004.7
20260508062355 15 249 1.6 16.1 0.66 1.17 1.17 90 1004.6
20260508061845 15 249 6.4 27.4 0.66 1.17 1.17 90 1005.1
20260508061335 15 245 12.9 27.4 0.64 1.12 1.12 89 1005.3
20260508061056 15 214 17.7 35.4 0.58 1.07 1.07 89 1005.2
20260508060317 15 246 17.7 35.4 0.56 1.04 1.04 89 1004.6
20260508055757 15 210 16.1 32.2 0.51 0.99 0.99 89 1004.5
20260508055244 16 216 17.7 38.6 0.48 0.97 0.97 88 1004.4
20260508054732 16 276 19.3 37.0 0.41 0.89 0.94 88 1005.0
20260508054221 16 223 24.1 37.0 0.36 0.84 0.84 87 1004.3
20260508053942 17 191 17.7 62.8 0.38 0.84 0.84 87 1004.1
20260508053153 18 264 4.8 62.8 0.18 0.64 0.69 85 1004.3
20260508052645 20 228 0.0 0.0 0.08 0.51 0.51 89 1004.1
20260508052134 20 247 0.0 0.0 0.23 0.48 0.48 89 1003.5
20260508051625 20 231 0.0 0.0 0.38 0.48 0.48 88 1003.0
20260508051114 20 220 0.0 0.0 0.38 0.48 0.48 88 1003.0
20260508050604 20 216 0.0 0.0 0.38 0.48 0.48 88 1003.2
20260508050053 20 211 0.0 0.0 0.38 0.48 0.48 87 1002.9
20260508045544 20 230 0.0 0.0 0.38 0.48 0.48 87 1002.7
20260508045033 21 222 0.0 0.0 0.38 0.48 0.48 86 1002.3
20260508044524 21 324 0.0 0.0 0.38 0.48 0.48 85 1002.4
20260508044011 21 324 0.0 0.0 0.33 0.43 0.43 85 1002.4
20260508043458 21 324 0.0 0.0 0.33 0.43 0.43 84 1002.3
20260508042947 21 343 0.0 0.0 0.36 0.43 0.43 83 1002.1
20260508042710 21 309 0.0 0.0 0.43 0.43 0.43 82 1002.1
20260508041929 21 316 0.0 0.0 0.10 0.10 0.10 81 1002.1
20260508041418 21 313 0.0 0.0 0.10 0.10 0.10 82 1001.9
20260508035838 21 343 0.0 9.7 0.10 0.10 0.10 82 1001.3
20260508035557 21 325 0.0 9.7 0.10 0.10 0.10 82 1001.2
20260508034821 21 294 0.0 4.8 0.10 0.10 0.10 82 1001.3
20260508034552 21 308 0.0 4.8 0.10 0.10 0.10 82 1001.4
20260508033821 21 348 0.0 4.8 0.10 0.10 0.10 81 1001.8
20260508033322 21 310 0.0 9.7 0.08 0.08 0.08 81 1002.0
20260508032820 21 5 1.6 9.7 0.08 0.08 0.08 81 1002.0
20260508032551 21 316 1.6 11.3 0.00 0.00 0.00 81 1002.5
20260508031823 21 324 3.2 17.7 0.00 0.00 0.00 81 1002.5
20260508031320 21 311 1.6 17.7 0.00 0.00 0.00 82 1002.5
20260508030832 21 292 0.0 9.7 0.00 0.00 0.00 83 1002.5
20260508030558 21 324 0.0 0.0 0.00 0.00 0.00 83 1002.5
20260508025538 21 318 0.0 6.4 0.38 0.41 0.41 83 1002.5
20260508025306 21 28 0.0 6.4 0.41 0.41 0.41 84 1002.6
20260508024519 21 358 0.0 9.7 0.41 0.41 0.41 84 1002.5
20260508024017 21 0 0.0 9.7 0.41 0.41 0.41 84 1002.8
20260508023514 21 343 0.0 6.4 0.41 0.41 0.41 83 1002.8
20260508023000 21 339 3.2 14.5 0.38 0.38 0.41 83 1003.2
20260508022448 21 333 8.0 20.9 0.38 0.38 0.38 82 1003.0
20260508021937 21 232 9.7 37.0 0.38 0.38 0.38 81 1002.9
20260508021430 21 259 9.7 37.0 0.33 0.33 0.33 81 1003.3
20260508020904 22 277 14.5 33.8 0.25 0.25 0.25 78 1003.6
20260508020354 22 214 22.5 53.1 0.18 0.18 0.23 74 1004.0
20260508015844 25 214 24.1 53.1 0.03 0.03 0.03 64 1003.6
20260508015338 28 287 14.5 51.5 0.00 0.00 0.00 53 1003.6
20260508014837 30 235 4.8 27.4 0.00 0.00 0.00 51 1001.7
20260508014338 30 30 3.2 19.3 0.00 0.00 0.00 50 1000.6
20260508013838 30 339 3.2 19.3 0.00 0.00 0.00 50 1000.3
20260508013327 30 333 3.2 22.5 0.00 0.00 0.00 50 999.7
20260508012816 30 351 8.0 43.5 0.00 0.00 0.00 50 999.6
20260508012308 30 326 8.0 43.5 0.00 0.00 0.00 50 999.7
20260508011753 30 0 4.8 19.3 0.00 0.00 0.00 50 999.7
20260508011239 30 29 4.8 22.5 0.00 0.00 0.00 49 999.6
20260508010729 30 304 6.4 32.2 0.00 0.00 0.00 49 999.7
20260508010452 30 322 6.4 32.2 0.00 0.00 0.00 49 999.6
20260508005708 30 319 6.4 30.6 0.00 0.00 0.00 49 999.7
20260508005426 30 333 6.4 30.6 0.00 0.00 0.00 49 999.6
20260508004637 30 333 8.0 32.2 0.00 0.00 0.00 48 999.6
20260508004122 30 31 8.0 32.2 0.00 0.00 0.00 48 999.5
20260508003614 30 10 8.0 30.6 0.00 0.00 0.00 49 999.6
20260508003103 30 296 8.0 29.0 0.00 0.00 0.00 49 999.5
20260508002550 30 19 6.4 19.3 0.00 0.00 0.00 49 999.3
20260508002034 30 318 4.8 14.5 0.00 0.00 0.00 49 999.2
20260508001013 30 18 3.2 33.8 0.00 0.00 0.00 48 999.5
20260508000458 30 10 1.6 17.7 0.00 0.00 0.00 48 999.3
20260507235952 30 74 4.8 27.4 0.00 0.00 0.00 48 999.5
20260507235503 30 354 6.4 25.7 0.00 0.00 0.00 47 999.3
20260507235452 30 29 6.4 27.4 0.00 0.00 0.00 47 999.4
20260507234452 30 355 4.8 25.7 0.00 0.00 0.00 47 999.2
20260507233952 30 339 4.8 29.0 0.00 0.00 0.00 48 999.3
20260507233450 30 350 6.4 29.0 0.00 0.00 0.00 48 999.3
20260507232448 30 348 3.2 19.3 0.00 0.00 0.00 49 999.3
20260507231948 30 337 3.2 19.3 0.00 0.00 0.00 49 999.3
20260507231720 30 11 3.2 16.1 0.00 0.00 0.00 49 999.5
20260507230947 30 35 1.6 16.1 0.00 0.00 0.00 49 999.5
20260507230441 30 297 3.2 9.7 0.00 0.00 0.00 50 999.5
20260507225940 30 348 3.2 12.9 0.00 0.00 0.00 50 999.5
20260507225440 30 27 3.2 12.9 0.00 0.00 0.00 50 999.2
20260507224939 30 88 4.8 22.5 0.00 0.00 0.00 50 999.4
20260507224710 30 35 6.4 25.7 0.00 0.00 0.00 50 999.5
20260507223940 30 36 4.8 25.7 0.00 0.00 0.00 50 999.7
20260507223440 30 30 1.6 19.3 0.00 0.00 0.00 51 999.6
20260507222940 30 37 0.0 8.0 0.00 0.00 0.00 51 999.6
20260507222720 30 77 0.0 3.2 0.00 0.00 0.00 51 999.7
20260507221937 30 46 1.6 14.5 0.00 0.00 0.00 51 999.9
20260507221435 30 70 1.6 14.5 0.00 0.00 0.00 50 999.7
20260507220918 30 70 0.0 0.0 0.00 0.00 0.00 50 1000.0
20260507220649 30 78 0.0 3.2 0.00 0.00 0.00 50 1000.0
20260507215916 30 79 0.0 3.2 0.00 0.00 0.00 50 1000.0
20260507215411 30 36 0.0 11.3 0.00 0.00 0.00 50 1000.1
20260507214911 30 359 1.6 11.3 0.00 0.00 0.00 50 1000.1
20260507214412 30 337 0.0 9.7 0.00 0.00 0.00 50 1000.3
20260507213911 30 32 1.6 11.3 0.00 0.00 0.00 49 1000.2
20260507213643 30 35 1.6 11.3 0.00 0.00 0.00 49 1000.2
20260507212912 30 70 1.6 12.9 0.00 0.00 0.00 49 1000.2
20260507212412 30 355 1.6 14.5 0.00 0.00 0.00 49 1000.4
20260507211911 30 24 1.6 14.5 0.00 0.00 0.00 49 1000.3
20260507211412 31 359 0.0 9.7 0.00 0.00 0.00 48 1000.4
20260507210911 31 352 0.0 3.2 0.00 0.00 0.00 48 1000.5
20260507210411 31 316 1.6 11.3 0.00 0.00 0.00 48 1000.5
20260507205907 31 11 3.2 14.5 0.00 0.00 0.00 48 1000.5
20260507205402 31 328 3.2 14.5 0.00 0.00 0.00 47 1000.4
20260507205132 31 341 1.6 11.3 0.00 0.00 0.00 48 1000.4
20260507203849 31 329 1.6 14.5 0.00 0.00 0.00 47 1000.3
20260507203349 31 1 1.6 14.5 0.00 0.00 0.00 47 1000.5
20260507202847 31 310 3.2 14.5 0.00 0.00 0.00 46 1000.4
20260507202619 31 352 1.6 14.5 0.00 0.00 0.00 46 1000.4
20260507202454 31 17 1.6 14.5 0.00 0.00 0.00 46 1000.3
20260507201344 32 335 3.2 14.5 0.00 0.00 0.00 46 1000.3
20260507200844 32 326 1.6 12.9 0.00 0.00 0.00 46 1000.3
20260507200344 32 319 1.6 8.0 0.00 0.00 0.00 46 1000.2
20260507195840 32 339 3.2 16.1 0.00 0.00 0.00 46 1000.2
20260507195338 32 288 3.2 16.1 0.00 0.00 0.00 46 1000.0
20260507194838 31 330 3.2 14.5 0.00 0.00 0.00 47 1000.0
20260507193829 31 322 1.6 17.7 0.00 0.00 0.00 48 1000.0
20260507193323 31 60 1.6 11.3 0.00 0.00 0.00 49 1000.1
20260507192818 31 8 1.6 19.3 0.00 0.00 0.00 48 1000.2
20260507192316 31 4 1.6 19.3 0.00 0.00 0.00 48 1000.1
20260507191812 31 18 3.2 19.3 0.00 0.00 0.00 48 1000.2
20260507191305 31 344 4.8 19.3 0.00 0.00 0.00 47 1000.3
20260507190800 31 335 3.2 19.3 0.00 0.00 0.00 47 1000.4
20260507190249 31 10 1.6 11.3 0.00 0.00 0.00 48 1000.4
20260507185747 31 20 1.6 9.7 0.00 0.00 0.00 48 1000.3
20260507185237 31 337 1.6 8.0 0.00 0.00 0.00 48 1000.3
20260507184724 31 48 1.6 8.0 0.00 0.00 0.00 48 1000.5
20260507184217 31 4 1.6 8.0 0.00 0.00 0.00 48 1000.5
20260507183705 31 19 1.6 9.7 0.00 0.00 0.00 48 1000.6
20260507183201 31 330 1.6 8.0 0.00 0.00 0.00 48 1000.6
20260507182650 31 313 1.6 9.7 0.00 0.00 0.00 47 1000.6
20260507182140 31 333 1.6 12.9 0.00 0.00 0.00 47 1000.5
20260507181628 31 347 1.6 12.9 0.00 0.00 0.00 47 1000.6
20260507181118 31 345 3.2 17.7 0.00 0.00 0.00 47 1000.6
20260507180608 31 17 3.2 17.7 0.00 0.00 0.00 47 1000.4
20260507180327 31 25 1.6 11.3 0.00 0.00 0.00 48 1000.5
20260507175546 31 24 3.2 11.3 0.00 0.00 0.00 48 1000.4
20260507175307 31 332 3.2 11.3 0.00 0.00 0.00 48 1000.6
20260507174526 31 29 1.6 6.4 0.00 0.00 0.00 48 1000.6
20260507174014 31 352 1.6 8.0 0.00 0.00 0.00 48 1000.5
20260507173736 31 13 3.2 16.1 0.00 0.00 0.00 48 1000.6
20260507173224 31 335 3.2 16.1 0.00 0.00 0.00 47 1000.7
20260507172442 32 24 3.2 9.7 0.00 0.00 0.00 48 1000.7
20260507171931 32 2 3.2 12.9 0.00 0.00 0.00 48 1000.9
20260507171413 32 35 4.8 20.9 0.00 0.00 0.00 48 1001.0
20260507170905 32 291 4.8 20.9 0.00 0.00 0.00 48 1001.2
20260507170352 32 60 3.2 20.9 0.00 0.00 0.00 47 1001.0
20260507165851 32 328 4.8 24.1 0.00 0.00 0.00 47 1001.1
20260507165345 32 353 4.8 24.1 0.00 0.00 0.00 46 1001.2
20260507164327 32 279 9.7 25.7 0.00 0.00 0.00 46 1001.5
20260507163815 32 342 9.7 27.4 0.00 0.00 0.00 45 1001.6
20260507163300 32 303 8.0 27.4 0.00 0.00 0.00 45 1001.4
20260507162750 32 345 6.4 22.5 0.00 0.00 0.00 45 1001.6
20260507162239 32 38 8.0 33.8 0.00 0.00 0.00 45 1001.4
20260507161722 32 12 11.3 37.0 0.00 0.00 0.00 46 1001.7
20260507161208 32 337 8.0 29.0 0.00 0.00 0.00 46 1001.8
20260507160927 32 303 6.4 32.2 0.00 0.00 0.00 47 1002.0
20260507160138 32 329 8.0 32.2 0.00 0.00 0.00 47 1001.9
20260507155632 33 262 4.8 29.0 0.00 0.00 0.00 48 1001.9
20260507155128 32 339 3.2 19.3 0.00 0.00 0.00 49 1001.8
20260507154630 32 307 3.2 16.1 0.00 0.00 0.00 49 1001.9
20260507154128 31 312 4.8 22.5 0.00 0.00 0.00 51 1002.2
20260507153628 31 338 6.4 22.5 0.00 0.00 0.00 50 1002.3
20260507152622 32 317 4.8 27.4 0.00 0.00 0.00 51 1002.4
20260507152123 31 309 6.4 29.0 0.00 0.00 0.00 51 1002.6
20260507151623 31 328 4.8 29.0 0.00 0.00 0.00 52 1002.8
20260507151123 31 38 3.2 22.5 0.00 0.00 0.00 51 1002.8
20260507150621 31 8 3.2 19.3 0.00 0.00 0.00 52 1002.8
20260507150118 31 332 3.2 19.3 0.00 0.00 0.00 53 1003.0
20260507145618 31 262 6.4 27.4 0.00 0.00 0.00 53 1003.3
20260507145114 31 12 4.8 27.4 0.00 0.00 0.00 53 1003.4
20260507144613 31 351 3.2 19.3 0.00 0.00 0.00 53 1003.6
20260507144344 31 351 3.2 19.3 0.00 0.00 0.00 53 1003.7
20260507143612 31 2 3.2 16.1 0.00 0.00 0.00 54 1003.6
20260507143112 31 325 4.8 20.9 0.00 0.00 0.00 54 1004.0
20260507142619 30 333 3.2 14.5 0.00 0.00 0.00 55 1004.3
20260507142612 30 18 4.8 20.9 0.00 0.00 0.00 53 1004.0
20260507141839 30 350 3.2 19.3 0.00 0.00 0.00 55 1004.6
20260507141340 30 310 4.8 29.0 0.00 0.00 0.00 55 1004.6
20260507140839 30 18 3.2 29.0 0.00 0.00 0.00 56 1004.9
20260507140108 30 302 3.2 20.9 0.00 0.00 0.00 56 1004.9
20260507135610 30 338 3.2 17.7 0.00 0.00 0.00 56 1005.2
20260507135108 30 340 4.8 19.3 0.00 0.00 0.00 57 1005.2
20260507134108 29 316 4.8 19.3 0.00 0.00 0.00 57 1005.6
20260507133608 29 327 4.8 19.3 0.00 0.00 0.00 58 1005.7
20260507133108 29 349 3.2 33.8 0.00 0.00 0.00 59 1006.0
20260507132608 28 337 3.2 33.8 0.00 0.00 0.00 60 1006.0
20260507132338 28 348 3.2 12.9 0.00 0.00 0.00 60 1006.1
20260507131606 28 355 1.6 12.9 0.00 0.00 0.00 60 1006.1
20260507131338 28 343 3.2 12.9 0.00 0.00 0.00 60 1006.2
20260507130606 28 31 4.8 14.5 0.00 0.00 0.00 61 1006.3
20260507130106 28 20 3.2 14.5 0.00 0.00 0.00 62 1006.5
20260507125547 28 28 1.6 11.3 0.00 0.00 0.00 63 1006.5
20260507125046 27 33 3.2 19.3 0.00 0.00 0.00 63 1006.6
20260507124547 27 342 1.6 19.3 0.00 0.00 0.00 63 1006.7
20260507124047 27 7 3.2 17.7 0.00 0.00 0.00 63 1006.8
20260507123538 27 338 3.2 17.7 0.00 0.00 0.00 63 1007.0
20260507123033 27 355 1.6 14.5 0.00 0.00 0.00 63 1007.0
20260507122540 27 351 1.6 19.3 0.00 0.00 0.00 64 1007.1
20260507122533 27 343 3.2 19.3 0.00 0.00 0.00 64 1007.0
20260507121530 27 346 0.0 4.8 0.00 0.00 0.00 64 1007.0
20260507121028 27 28 0.0 4.8 0.00 0.00 0.00 65 1006.9
20260507120517 27 9 0.0 3.2 0.00 0.00 0.00 66 1006.9
20260507120017 27 9 0.0 3.2 0.00 0.00 0.00 65 1006.9
20260507115514 27 52 0.0 3.2 0.00 0.00 0.00 65 1007.1
20260507115010 27 52 0.0 3.2 0.00 0.00 0.00 66 1007.0
20260507114509 27 52 0.0 3.2 0.00 0.00 0.00 66 1007.0
20260507114002 27 52 0.0 8.0 0.00 0.00 0.00 66 1007.1
20260507112943 27 42 0.0 3.2 0.00 0.00 0.00 66 1007.0
20260507112438 27 42 0.0 3.2 0.00 0.00 0.00 66 1006.9
20260507111934 27 233 0.0 1.6 0.00 0.00 0.00 66 1006.8
20260507111654 27 124 1.6 11.3 0.00 0.00 0.00 65 1006.9
20260507110919 27 353 1.6 12.9 0.00 0.00 0.00 65 1006.7
20260507110409 27 58 1.6 12.9 0.00 0.00 0.00 65 1006.5
20260507105902 27 37 3.2 16.1 0.00 0.00 0.00 65 1006.4
20260507105404 27 33 3.2 16.1 0.00 0.00 0.00 65 1006.4
20260507104857 27 56 1.6 8.0 0.00 0.00 0.00 67 1006.2
20260507104115 26 326 1.6 6.4 0.00 0.00 0.00 67 1006.1
20260507103608 26 20 1.6 14.5 0.00 0.00 0.00 67 1006.3
20260507102824 26 356 1.6 14.5 0.00 0.00 0.00 68 1006.3
20260507101814 26 327 1.6 12.9 0.00 0.00 0.00 68 1006.4
20260507101312 26 3 3.2 19.3 0.00 0.00 0.00 68 1006.3
20260507100810 26 49 3.2 19.3 0.00 0.00 0.00 68 1006.3
20260507100542 26 15 1.6 11.3 0.00 0.00 0.00 68 1006.4
20260507100042 26 2 1.6 11.3 0.00 0.00 0.00 68 1006.3
20260507095305 26 345 1.6 12.9 0.00 0.00 0.00 68 1006.3
20260507094752 26 303 1.6 12.9 0.00 0.00 0.00 68 1006.4
20260507094243 26 320 1.6 11.3 0.00 0.00 0.00 68 1006.5
20260507094004 26 324 1.6 11.3 0.00 0.00 0.00 68 1006.5
20260507093222 26 333 1.6 11.3 0.00 0.00 0.00 68 1006.6
20260507092700 26 320 0.0 6.4 0.00 0.00 0.00 68 1006.5
20260507092150 26 335 0.0 9.7 0.00 0.00 0.00 68 1006.5
20260507091640 26 333 1.6 9.7 0.00 0.00 0.00 68 1006.5
20260507091131 26 35 0.0 6.4 0.00 0.00 0.00 68 1006.4
20260507090852 26 356 0.0 6.4 0.00 0.00 0.00 69 1006.4
20260507090111 26 25 1.6 6.4 0.00 0.00 0.00 69 1006.3
20260507085552 26 25 1.6 6.4 0.00 0.00 0.00 69 1006.3
20260507085313 26 349 0.0 8.0 0.00 0.00 0.00 69 1006.2
20260507084532 26 345 1.6 11.3 0.00 0.00 0.00 69 1006.2
20260507084022 26 326 1.6 11.3 0.00 0.00 0.00 70 1006.2
20260507083512 26 347 0.0 8.0 0.00 0.00 0.00 70 1006.3
20260507083003 26 335 0.0 0.0 0.00 0.00 0.00 70 1006.4
20260507082451 26 6 0.0 0.0 0.00 0.00 0.00 70 1006.4
20260507081937 26 16 0.0 0.0 0.00 0.00 0.00 70 1006.4
20260507081427 26 16 0.0 0.0 0.00 0.00 0.00 70 1006.3
20260507080916 25 16 0.0 0.0 0.00 0.00 0.00 71 1006.3
20260507080905 25 24 0.0 0.0 0.00 0.00 0.00 71 1006.3
20260507075850 25 23 0.0 0.0 0.00 0.00 0.00 71 1006.5